| time (UTC) | temp F | wind direction | speed MPH | gust MPH | rain 1hr in | rain 24hr in | rain mn in | humidity % | barometer mb |
| 20260507063948 | 44 | 337 | 0.0 | 0.0 | 0.00 | 7.11 | 0.00 | 93 | 1013.9 |
| 20260507062948 | 44 | 135 | 0.0 | 0.0 | 0.00 | 7.11 | 0.00 | 93 | 1013.7 |
| 20260507061948 | 44 | 202 | 0.0 | 0.0 | 0.00 | 7.11 | 0.00 | 93 | 1013.7 |
| 20260507060948 | 43 | 90 | 0.0 | 0.0 | 0.00 | 7.11 | 0.00 | 94 | 1013.5 |
| 20260507055948 | 43 | 67 | 0.0 | 0.0 | 0.00 | 7.11 | 0.00 | 94 | 1013.5 |
| 20260507054948 | 43 | 45 | 0.0 | 0.0 | 0.00 | 7.11 | 0.00 | 93 | 1013.4 |
| 20260507053948 | 43 | 67 | 0.0 | 0.0 | 0.00 | 7.11 | 0.00 | 93 | 1013.4 |
| 20260507052949 | 42 | 270 | 0.0 | 0.0 | 0.00 | 7.11 | 0.00 | 93 | 1013.3 |
| 20260507051949 | 42 | 90 | 0.0 | 0.0 | 0.00 | 7.11 | 0.00 | 93 | 1013.2 |
| 20260507050949 | 42 | 67 | 0.0 | 0.0 | 0.00 | 7.11 | 0.00 | 93 | 1012.9 |
| 20260507045949 | 42 | 22 | 0.0 | 0.0 | 0.00 | 7.13 | 0.00 | 93 | 1012.7 |
| 20260507044949 | 42 | 112 | 0.0 | 0.0 | 0.00 | 7.13 | 0.00 | 93 | 1012.6 |
| 20260507043949 | 42 | 135 | 0.0 | 0.0 | 0.00 | 7.13 | 0.00 | 93 | 1012.5 |
| 20260507042949 | 42 | 90 | 0.0 | 0.0 | 0.00 | 7.13 | 0.00 | 93 | 1012.5 |
| 20260507041949 | 42 | 67 | 0.0 | 0.0 | 0.00 | 7.13 | 0.00 | 93 | 1012.5 |
| 20260507040949 | 42 | 67 | 0.0 | 0.0 | 0.00 | 7.13 | 0.00 | 93 | 1012.2 |
| 20260507035949 | 42 | 90 | 0.0 | 0.0 | 0.00 | 7.13 | 0.00 | 93 | 1012.3 |
| 20260507034949 | 42 | 90 | 0.0 | 0.0 | 0.00 | 7.13 | 0.00 | 93 | 1012.2 |
| 20260507033949 | 42 | 202 | 0.0 | 0.0 | 0.00 | 7.13 | 0.00 | 93 | 1012.1 |
| 20260507032949 | 42 | 90 | 0.0 | 0.0 | 0.00 | 7.13 | 0.00 | 93 | 1012.3 |
| 20260507031949 | 42 | 112 | 0.0 | 0.0 | 0.00 | 7.13 | 0.00 | 93 | 1012.2 |
| 20260507030949 | 42 | 112 | 0.0 | 0.0 | 0.00 | 7.13 | 0.00 | 93 | 1012.1 |
| 20260507025949 | 42 | 67 | 0.0 | 0.0 | 0.00 | 7.13 | 0.00 | 93 | 1012.2 |
| 20260507024949 | 42 | 112 | 0.0 | 0.0 | 0.00 | 7.13 | 0.00 | 93 | 1012.0 |
| 20260507023949 | 42 | 45 | 0.0 | 0.0 | 0.00 | 7.13 | 0.00 | 93 | 1012.1 |
| 20260507022949 | 42 | 45 | 0.0 | 0.0 | 0.00 | 7.13 | 0.00 | 93 | 1011.9 |
| 20260507021949 | 42 | 90 | 0.0 | 0.0 | 0.00 | 7.13 | 0.00 | 93 | 1012.1 |
| 20260507020949 | 42 | 157 | 0.0 | 0.0 | 0.00 | 7.13 | 0.00 | 93 | 1012.0 |
| 20260507015949 | 42 | 67 | 0.0 | 0.0 | 0.00 | 7.13 | 0.00 | 93 | 1011.9 |
| 20260507014949 | 42 | 112 | 0.0 | 0.0 | 0.00 | 7.13 | 0.00 | 93 | 1012.0 |
| 20260507013949 | 42 | 135 | 0.0 | 0.0 | 0.00 | 7.13 | 0.00 | 93 | 1011.9 |
| 20260507012949 | 42 | 112 | 0.0 | 0.0 | 0.00 | 7.13 | 0.00 | 93 | 1011.6 |
| 20260507011949 | 43 | 90 | 0.0 | 0.0 | 0.00 | 7.13 | 0.00 | 93 | 1011.6 |
| 20260507010949 | 43 | 247 | 0.0 | 0.0 | 0.00 | 7.13 | 0.00 | 93 | 1011.3 |
| 20260507005949 | 43 | 67 | 0.0 | 0.0 | 0.00 | 7.13 | 0.00 | 93 | 1011.5 |
| 20260507004949 | 43 | 180 | 0.0 | 0.0 | 0.00 | 7.13 | 0.00 | 93 | 1011.3 |
| 20260507003949 | 43 | 90 | 0.0 | 0.0 | 0.00 | 7.13 | 0.00 | 93 | 1011.3 |
| 20260507002950 | 43 | 112 | 0.0 | 0.0 | 0.00 | 7.13 | 0.00 | 93 | 1011.3 |
| 20260507001950 | 43 | 90 | 0.0 | 0.0 | 0.00 | 7.13 | 0.00 | 93 | 1011.4 |
| 20260507000950 | 43 | 112 | 0.0 | 0.0 | 0.00 | 7.13 | 0.00 | 93 | 1011.3 |
| 20260506235950 | 43 | 135 | 0.0 | 0.0 | 0.00 | 7.13 | 0.00 | 93 | 1011.3 |
| 20260506234950 | 43 | 202 | 0.0 | 0.0 | 0.00 | 7.13 | 0.00 | 93 | 1011.3 |
| 20260506233950 | 43 | 67 | 0.0 | 0.0 | 0.00 | 7.13 | 0.00 | 93 | 1011.3 |
| 20260506232950 | 43 | 90 | 0.0 | 0.0 | 0.00 | 7.13 | 0.00 | 93 | 1011.3 |
| 20260506231950 | 43 | 135 | 0.0 | 0.0 | 0.00 | 7.13 | 0.00 | 93 | 1011.3 |
| 20260506230950 | 43 | 135 | 0.0 | 0.0 | 0.00 | 7.13 | 0.00 | 93 | 1011.3 |
| 20260506225950 | 43 | 202 | 0.0 | 0.0 | 0.00 | 7.13 | 0.00 | 93 | 1011.1 |
| 20260506224950 | 43 | 67 | 0.0 | 0.0 | 0.00 | 7.13 | 0.00 | 93 | 1011.3 |
| 20260506223950 | 43 | 90 | 0.0 | 0.0 | 0.00 | 7.13 | 0.00 | 93 | 1011.3 |
| 20260506222950 | 43 | 337 | 0.0 | 0.0 | 0.00 | 7.13 | 0.00 | 93 | 1011.2 |
| 20260506221950 | 43 | 112 | 0.0 | 0.0 | 0.00 | 7.13 | 0.00 | 93 | 1011.1 |
| 20260506220950 | 43 | 67 | 0.0 | 0.0 | 0.00 | 7.13 | 0.00 | 93 | 1010.8 |
| 20260506215950 | 43 | 157 | 0.0 | 0.0 | 0.00 | 7.13 | 0.00 | 93 | 1010.9 |
| 20260506214950 | 43 | 67 | 0.0 | 0.0 | 0.00 | 7.13 | 0.00 | 93 | 1010.8 |
| 20260506213950 | 43 | 22 | 0.0 | 0.0 | 0.00 | 7.13 | 0.00 | 93 | 1011.0 |
| 20260506212950 | 43 | 112 | 0.0 | 0.0 | 0.00 | 7.13 | 0.00 | 93 | 1010.9 |
| 20260506211950 | 43 | 112 | 0.0 | 0.0 | 0.00 | 7.13 | 0.00 | 93 | 1010.6 |
| 20260506210950 | 44 | 45 | 0.0 | 0.0 | 0.00 | 7.13 | 0.00 | 93 | 1010.5 |
| 20260506205950 | 44 | 90 | 0.0 | 0.0 | 1.73 | 7.13 | 0.00 | 93 | 1010.6 |
| 20260506204950 | 44 | 45 | 0.0 | 0.0 | 1.73 | 7.13 | 0.00 | 93 | 1010.5 |
| 20260506203950 | 44 | 112 | 0.0 | 0.0 | 1.73 | 7.13 | 0.00 | 93 | 1010.5 |
| 20260506202950 | 44 | 135 | 0.0 | 0.0 | 1.73 | 7.13 | 0.00 | 93 | 1010.3 |
| 20260506201950 | 44 | 90 | 0.0 | 0.0 | 1.73 | 7.13 | 0.00 | 92 | 1010.2 |
| 20260506200950 | 44 | 90 | 0.0 | 0.0 | 1.73 | 7.13 | 0.00 | 92 | 1010.2 |
| 20260506195950 | 44 | 112 | 0.0 | 0.0 | 1.52 | 5.40 | 0.00 | 92 | 1010.1 |
| 20260506194950 | 44 | 90 | 0.0 | 0.0 | 1.52 | 5.40 | 0.00 | 92 | 1010.1 |
| 20260506193950 | 44 | 90 | 0.0 | 0.0 | 1.52 | 5.40 | 0.00 | 92 | 1009.9 |
| 20260506192950 | 45 | 90 | 0.0 | 0.0 | 1.52 | 5.40 | 0.00 | 92 | 1010.0 |
| 20260506191950 | 45 | 135 | 0.0 | 0.0 | 1.52 | 5.40 | 0.00 | 92 | 1009.6 |
| 20260506190951 | 45 | 90 | 0.0 | 0.0 | 1.52 | 5.40 | 0.00 | 92 | 1009.7 |
| 20260506185951 | 45 | 67 | 0.0 | 0.0 | 0.00 | 0.22 | 0.00 | 92 | 1009.3 |
| 20260506184951 | 45 | 67 | 0.0 | 0.0 | 0.00 | 0.22 | 0.00 | 92 | 1009.5 |
| 20260506183951 | 45 | 135 | 0.0 | 0.0 | 0.00 | 0.22 | 0.00 | 92 | 1009.3 |
| 20260506182951 | 45 | 45 | 0.0 | 0.0 | 0.00 | 0.22 | 0.00 | 92 | 1009.2 |
| 20260506181951 | 46 | 67 | 0.0 | 0.0 | 0.00 | 0.22 | 0.00 | 92 | 1009.2 |
| 20260506180951 | 46 | 45 | 0.0 | 0.0 | 0.00 | 0.22 | 0.00 | 92 | 1009.2 |
| 20260506175951 | 46 | 45 | 0.0 | 0.0 | 0.16 | 0.55 | 0.00 | 91 | 1008.9 |
| 20260506174951 | 46 | 22 | 0.0 | 0.0 | 0.16 | 0.55 | 0.00 | 91 | 1008.9 |
| 20260506173951 | 46 | 135 | 0.0 | 0.0 | 0.16 | 0.55 | 0.00 | 91 | 1009.0 |
| 20260506172951 | 47 | 135 | 0.0 | 0.0 | 0.16 | 0.55 | 0.00 | 91 | 1008.8 |
| 20260506171951 | 47 | 67 | 0.0 | 0.0 | 0.16 | 0.55 | 0.00 | 91 | 1008.7 |
| 20260506170951 | 48 | 22 | 0.0 | 0.0 | 0.00 | 0.38 | 0.00 | 91 | 1008.7 |
| 20260506165951 | 48 | 157 | 0.0 | 0.0 | 0.00 | 0.40 | 0.00 | 90 | 1008.7 |
| 20260506164951 | 48 | 112 | 0.0 | 0.0 | 0.00 | 0.40 | 0.00 | 90 | 1008.6 |
| 20260506163951 | 48 | 135 | 0.0 | 0.0 | 0.00 | 0.40 | 0.00 | 90 | 1008.5 |
| 20260506162951 | 49 | 112 | 0.0 | 0.0 | 0.00 | 0.40 | 0.00 | 90 | 1008.4 |
| 20260506161951 | 49 | 112 | 0.0 | 0.0 | 0.00 | 0.40 | 0.00 | 90 | 1008.4 |
| 20260506160951 | 49 | 112 | 0.0 | 0.0 | 0.00 | 0.40 | 0.00 | 90 | 1008.4 |
| 20260506155951 | 49 | 45 | 0.0 | 57.0 | 0.00 | 0.44 | 0.00 | 90 | 1008.5 |
| 20260506154951 | 49 | 90 | 0.0 | 0.0 | 0.00 | 0.44 | 0.00 | 89 | 1008.5 |
| 20260506153951 | 49 | 67 | 0.0 | 0.0 | 0.00 | 0.44 | 0.00 | 88 | 1008.6 |
| 20260506152951 | 49 | 22 | 0.0 | 0.0 | 0.00 | 0.44 | 0.00 | 88 | 1008.3 |
| 20260506151951 | 50 | 67 | 0.0 | 0.0 | 0.00 | 0.44 | 0.00 | 87 | 1008.3 |
| 20260506150951 | 51 | 67 | 0.0 | 0.0 | 0.00 | 0.44 | 0.00 | 86 | 1008.0 |
| 20260506145951 | 52 | 112 | 0.0 | 57.0 | 0.00 | 0.48 | 0.00 | 84 | 1008.0 |
| 20260506144951 | 53 | 157 | 0.0 | 0.0 | 0.00 | 0.48 | 0.00 | 84 | 1008.0 |
| 20260506143951 | 53 | 180 | 0.0 | 0.0 | 0.00 | 0.48 | 0.00 | 85 | 1007.8 |
| 20260506142951 | 53 | 67 | 0.0 | 0.0 | 0.00 | 0.48 | 0.00 | 85 | 1007.6 |
| 20260506141951 | 53 | 67 | 0.0 | 0.0 | 0.00 | 0.48 | 0.00 | 85 | 1007.9 |
| 20260506140951 | 53 | 90 | 0.0 | 0.0 | 0.00 | 0.48 | 0.00 | 85 | 1007.9 |
| 20260506135952 | 53 | 22 | 0.0 | 0.0 | 0.00 | 0.52 | 0.00 | 85 | 1007.8 |
| 20260506134952 | 53 | 67 | 0.0 | 4.0 | 0.00 | 0.52 | 0.00 | 84 | 1007.8 |
| 20260506133952 | 54 | 67 | 0.0 | 0.0 | 0.00 | 0.52 | 0.00 | 84 | 1007.8 |
| 20260506132952 | 54 | 112 | 0.0 | 0.0 | 0.00 | 0.52 | 0.00 | 83 | 1007.7 |
| 20260506131952 | 55 | 315 | 0.0 | 0.0 | 0.00 | 0.52 | 0.00 | 82 | 1007.7 |
| 20260506130952 | 56 | 135 | 0.0 | 0.0 | 0.00 | 0.52 | 0.00 | 81 | 1007.5 |
| 20260506125952 | 56 | 112 | 0.0 | 0.0 | 0.00 | 0.52 | 0.00 | 80 | 1007.5 |
| 20260506124952 | 58 | 45 | 0.0 | 0.0 | 0.00 | 0.52 | 0.00 | 77 | 1007.5 |
| 20260506123952 | 59 | 45 | 0.0 | 0.0 | 0.00 | 0.52 | 0.00 | 75 | 1007.4 |
| 20260506122952 | 60 | 22 | 0.0 | 0.0 | 0.00 | 0.52 | 0.00 | 75 | 1007.3 |
| 20260506121952 | 60 | 90 | 0.0 | 0.0 | 0.00 | 0.52 | 0.00 | 76 | 1007.4 |
| 20260506120952 | 59 | 157 | 0.0 | 0.0 | 0.00 | 0.52 | 0.00 | 77 | 1007.3 |
| 20260506115952 | 58 | 247 | 0.0 | 4.0 | 0.00 | 0.52 | 0.00 | 77 | 1007.2 |
| 20260506114952 | 57 | 180 | 0.0 | 6.0 | 0.00 | 0.52 | 0.00 | 77 | 1007.2 |
| 20260506113952 | 57 | 225 | 6.0 | 6.0 | 0.00 | 0.52 | 0.00 | 77 | 1007.2 |
| 20260506112952 | 58 | 247 | 3.0 | 5.0 | 0.00 | 0.52 | 0.00 | 76 | 1007.3 |
| 20260506111952 | 58 | 180 | 0.0 | 0.0 | 0.00 | 0.52 | 0.00 | 78 | 1007.2 |
| 20260506110952 | 57 | 337 | 0.0 | 5.0 | 0.00 | 0.52 | 0.00 | 78 | 1007.3 |
| 20260506105952 | 58 | 225 | 0.0 | 5.0 | 0.00 | 0.52 | 0.00 | 77 | 1007.1 |
| 20260506104952 | 59 | 225 | 0.0 | 0.0 | 0.00 | 0.52 | 0.00 | 80 | 1007.2 |
| 20260506103952 | 56 | 157 | 0.0 | 0.0 | 0.00 | 0.52 | 0.00 | 82 | 1007.2 |
| 20260506102952 | 55 | 90 | 0.0 | 3.0 | 0.00 | 0.52 | 0.00 | 81 | 1007.1 |
| 20260506101952 | 56 | 202 | 0.0 | 5.0 | 0.00 | 0.52 | 0.00 | 79 | 1007.1 |
| 20260506100952 | 58 | 225 | 0.0 | 5.0 | 0.00 | 0.52 | 0.00 | 76 | 1007.1 |
| 20260506095952 | 59 | 247 | 0.0 | 4.0 | 0.02 | 0.52 | 0.00 | 75 | 1007.1 |
| 20260506094952 | 60 | 45 | 0.0 | 4.0 | 0.02 | 0.52 | 0.00 | 74 | 1006.9 |
| 20260506093952 | 62 | 292 | 0.0 | 6.0 | 0.02 | 0.52 | 0.00 | 73 | 1006.9 |
| 20260506092952 | 63 | 225 | 0.0 | 6.0 | 0.02 | 0.52 | 0.00 | 75 | 1007.0 |
| 20260506091952 | 61 | 67 | 0.0 | 7.0 | 0.02 | 0.52 | 0.00 | 79 | 1006.8 |
| 20260506090952 | 57 | 67 | 0.0 | 0.0 | 0.02 | 0.52 | 0.00 | 84 | 1006.9 |
| 20260506085952 | 55 | 337 | 0.0 | 0.0 | 0.00 | 0.50 | 0.00 | 85 | 1006.8 |
| 20260506084952 | 55 | 247 | 0.0 | 0.0 | 0.00 | 0.50 | 0.00 | 85 | 1006.8 |
| 20260506083953 | 55 | 180 | 0.0 | 4.0 | 0.00 | 0.50 | 0.00 | 85 | 1006.7 |
| 20260506082953 | 55 | 337 | 0.0 | 0.0 | 0.00 | 0.50 | 0.00 | 86 | 1006.6 |
| 20260506081953 | 55 | 337 | 0.0 | 0.0 | 0.00 | 0.50 | 0.00 | 88 | 1006.6 |
| 20260506080953 | 55 | 337 | 0.0 | 0.0 | 0.00 | 0.50 | 0.00 | 89 | 1006.7 |
| 20260506072953 | 53 | 337 | 0.0 | 0.0 | 0.00 | 0.50 | 0.00 | 92 | 1006.7 |
| 20260506071953 | 53 | 202 | 0.0 | 0.0 | 0.00 | 0.50 | 0.00 | 93 | 1006.6 |
| 20260506070953 | 52 | 225 | 0.0 | 4.0 | 0.00 | 0.50 | 0.00 | 94 | 1006.6 |